Location: Isle of Man Observatory
(54.1776°N, 4.6264°W)
Time: 15:35:54
(UTC+02:00)

ARIANE 6 FM1 Upper Stage - Pass Details

Date: 20 April 2026
Orbit: 526 x 601 km, 62.0° (Epoch: 19 May)

Event Time Altitude Azimuth Distance (km) Brightness Sun altitude
Rises 02:50:11 0° 306° (NW) 2,678 6.5 -24.0°
Reaches altitude 10° 02:52:27 10° 300° (WNW) 1,780 5.4 -23.9°
Enters shadow 02:54:06 22° 288° (WNW) 1,178 4.3 -23.9°
